| time (UTC) | temp F | wind direction | speed MPH | gust MPH | rain 1hr in | rain 24hr in | rain mn in | humidity % | barometer mb |
| 20260504010940 | 76 | 104 | 1.0 | 6.0 | 0.00 | 0.00 | 0.00 | 1011.6 | |
| 20260504010850 | 76 | 131 | 1.0 | 6.0 | 0.00 | 0.00 | 0.00 | 1011.6 | |
| 20260504010240 | 77 | 143 | 0.0 | 2.0 | 0.00 | 0.00 | 0.00 | 1011.8 | |
| 20260504005850 | 77 | 96 | 0.0 | 5.0 | 0.00 | 0.00 | 0.00 | 1011.8 | |
| 20260504005540 | 77 | 96 | 0.0 | 5.0 | 0.00 | 0.00 | 0.00 | 1011.8 | |
| 20260504004841 | 78 | 52 | 0.0 | 5.0 | 0.00 | 0.00 | 0.00 | 1012.0 | |
| 20260504004140 | 79 | 108 | 0.0 | 2.0 | 0.00 | 0.00 | 0.00 | 1012.1 | |
| 20260504003850 | 79 | 35 | 1.0 | 5.0 | 0.00 | 0.00 | 0.00 | 1012.2 | |
| 20260504003440 | 79 | 35 | 1.0 | 5.0 | 0.00 | 0.00 | 0.00 | 1012.2 | |
| 20260504002850 | 80 | 49 | 1.0 | 5.0 | 0.00 | 0.00 | 0.00 | 1012.2 | |
| 20260504002740 | 80 | 49 | 1.0 | 5.0 | 0.00 | 0.00 | 0.00 | 1012.2 | |
| 20260504002040 | 80 | 59 | 1.0 | 5.0 | 0.00 | 0.00 | 0.00 | 1012.2 | |
| 20260504001850 | 79 | 79 | 0.0 | 3.0 | 0.00 | 0.00 | 0.00 | 1012.2 | |
| 20260504001342 | 80 | 80 | 1.0 | 5.0 | 0.00 | 0.00 | 0.00 | 1012.2 | |
| 20260504000840 | 80 | 35 | 1.0 | 7.0 | 0.00 | 0.00 | 0.00 | 1012.4 | |
| 20260504000140 | 80 | 108 | 1.0 | 6.0 | 0.00 | 0.00 | 0.00 | 1012.4 | |
| 20260503235850 | 80 | 105 | 1.0 | 6.0 | 0.00 | 0.00 | 0.00 | 1012.5 | |
| 20260503235440 | 80 | 105 | 1.0 | 6.0 | 0.00 | 0.00 | 0.00 | 1012.5 | |
| 20260503234850 | 80 | 53 | 1.0 | 6.0 | 0.00 | 0.00 | 0.00 | 1012.5 | |
| 20260503234740 | 80 | 53 | 1.0 | 6.0 | 0.00 | 0.00 | 0.00 | 1012.5 | |
| 20260503234039 | 80 | 118 | 1.0 | 6.0 | 0.00 | 0.00 | 0.00 | 1012.6 | |
| 20260503233850 | 80 | 128 | 1.0 | 7.0 | 0.00 | 0.00 | 0.00 | 1012.6 | |
| 20260503233339 | 80 | 66 | 0.0 | 2.0 | 0.00 | 0.00 | 0.00 | 1012.7 | |
| 20260503232850 | 80 | 60 | 0.0 | 4.0 | 0.00 | 0.00 | 0.00 | 1012.8 | |
| 20260503232640 | 80 | 60 | 0.0 | 4.0 | 0.00 | 0.00 | 0.00 | 1012.8 | |
| 20260503231941 | 81 | 128 | 1.0 | 6.0 | 0.00 | 0.00 | 0.00 | 1012.8 | |
| 20260503231850 | 80 | 156 | 0.0 | 1.0 | 0.00 | 0.00 | 0.00 | 1012.9 | |
| 20260503231239 | 81 | 86 | 1.0 | 7.0 | 0.00 | 0.00 | 0.00 | 1012.8 | |
| 20260503230850 | 81 | 70 | 1.0 | 7.0 | 0.00 | 0.00 | 0.00 | 1012.9 | |
| 20260503230540 | 81 | 70 | 1.0 | 7.0 | 0.00 | 0.00 | 0.00 | 1012.9 | |
| 20260503225839 | 81 | 62 | 2.0 | 9.0 | 0.00 | 0.00 | 0.00 | 1013.0 | |
| 20260503225139 | 81 | 76 | 2.0 | 9.0 | 0.00 | 0.00 | 0.00 | 1013.0 | |
| 20260503224850 | 81 | 80 | 2.0 | 8.0 | 0.00 | 0.00 | 0.00 | 1013.1 | |
| 20260503224441 | 81 | 80 | 2.0 | 8.0 | 0.00 | 0.00 | 0.00 | 1013.1 | |
| 20260503223849 | 81 | 101 | 2.0 | 9.0 | 0.00 | 0.00 | 0.00 | 1013.1 | |
| 20260503223041 | 81 | 104 | 1.0 | 6.0 | 0.00 | 0.00 | 0.00 | 1013.1 | |
| 20260503222849 | 80 | 45 | 3.0 | 10.0 | 0.00 | 0.00 | 0.00 | 1013.2 | |
| 20260503222339 | 81 | 55 | 2.0 | 7.0 | 0.00 | 0.00 | 0.00 | 1013.2 | |
| 20260503221852 | 81 | 48 | 2.0 | 9.0 | 0.00 | 0.00 | 0.00 | 1013.1 | |
| 20260503221641 | 81 | 48 | 2.0 | 9.0 | 0.00 | 0.00 | 0.00 | 1013.1 | |
| 20260503220940 | 81 | 131 | 2.0 | 9.0 | 0.00 | 0.00 | 0.00 | 1013.3 | |
| 20260503220850 | 81 | 125 | 1.0 | 3.0 | 0.00 | 0.00 | 0.00 | 1013.3 | |
| 20260503220239 | 81 | 207 | 1.0 | 5.0 | 0.00 | 0.00 | 0.00 | 1013.3 | |
| 20260503215850 | 82 | 143 | 1.0 | 6.0 | 0.00 | 0.00 | 0.00 | 1013.3 | |
| 20260503215542 | 82 | 143 | 1.0 | 6.0 | 0.00 | 0.00 | 0.00 | 1013.3 | |
| 20260503214839 | 80 | 70 | 0.0 | 2.0 | 0.00 | 0.00 | 0.00 | 1013.3 | |
| 20260503214139 | 80 | 108 | 2.0 | 7.0 | 0.00 | 0.00 | 0.00 | 1013.4 | |
| 20260503213850 | 80 | 56 | 1.0 | 6.0 | 0.00 | 0.00 | 0.00 | 1013.4 | |
| 20260503213439 | 80 | 56 | 1.0 | 6.0 | 0.00 | 0.00 | 0.00 | 1013.4 | |
| 20260503212850 | 81 | 10 | 1.0 | 4.0 | 0.00 | 0.00 | 0.00 | 1013.4 | |
| 20260503212039 | 80 | 120 | 1.0 | 3.0 | 0.00 | 0.00 | 0.00 | 1013.4 | |
| 20260503211849 | 80 | 68 | 1.0 | 5.0 | 0.00 | 0.00 | 0.00 | 1013.3 | |
| 20260503211341 | 80 | 222 | 1.0 | 5.0 | 0.00 | 0.00 | 0.00 | 1013.4 | |
| 20260503210850 | 80 | 129 | 1.0 | 6.0 | 0.00 | 0.00 | 0.00 | 1013.4 | |
| 20260503210640 | 80 | 129 | 1.0 | 6.0 | 0.00 | 0.00 | 0.00 | 1013.4 | |
| 20260503205940 | 79 | 122 | 1.0 | 6.0 | 0.00 | 0.00 | 0.00 | 1013.4 | |
| 20260503205851 | 79 | 162 | 1.0 | 5.0 | 0.00 | 0.00 | 0.00 | 1013.4 | |
| 20260503205239 | 79 | 145 | 1.0 | 6.0 | 0.00 | 0.00 | 0.00 | 1013.5 | |
| 20260503204850 | 78 | 59 | 1.0 | 5.0 | 0.00 | 0.00 | 0.00 | 1013.4 | |
| 20260503204539 | 78 | 59 | 1.0 | 5.0 | 0.00 | 0.00 | 0.00 | 1013.4 | |
| 20260503203840 | 79 | 173 | 0.0 | 1.0 | 0.00 | 0.00 | 0.00 | 1013.6 | |
| 20260503203139 | 79 | 200 | 1.0 | 7.0 | 0.00 | 0.00 | 0.00 | 1013.6 | |
| 20260503202849 | 78 | 60 | 1.0 | 6.0 | 0.00 | 0.00 | 0.00 | 1013.6 | |
| 20260503202439 | 78 | 60 | 1.0 | 6.0 | 0.00 | 0.00 | 0.00 | 1013.6 | |
| 20260503201853 | 78 | 177 | 1.0 | 5.0 | 0.00 | 0.00 | 0.00 | 1013.6 | |
| 20260503201740 | 78 | 177 | 1.0 | 5.0 | 0.00 | 0.00 | 0.00 | 1013.6 | |
| 20260503201039 | 78 | 14 | 1.0 | 3.0 | 0.00 | 0.00 | 0.00 | 1013.7 | |
| 20260503200850 | 78 | 104 | 0.0 | 3.0 | 0.00 | 0.00 | 0.00 | 1013.7 | |
| 20260503200537 | 78 | 79 | 0.0 | 3.0 | 0.00 | 0.00 | 0.00 | 1013.8 | |
| 20260503200339 | 78 | 79 | 0.0 | 3.0 | 0.00 | 0.00 | 0.00 | 1013.8 | |
| 20260503195852 | 78 | 48 | 1.0 | 6.0 | 0.00 | 0.00 | 0.00 | 1013.9 | |
| 20260503195640 | 78 | 48 | 1.0 | 6.0 | 0.00 | 0.00 | 0.00 | 1013.9 | |
| 20260503194939 | 78 | 76 | 1.0 | 4.0 | 0.00 | 0.00 | 0.00 | 1013.9 | |
| 20260503194849 | 76 | 15 | 1.0 | 4.0 | 0.00 | 0.00 | 0.00 | 1013.8 | |
| 20260503194240 | 78 | 65 | 1.0 | 5.0 | 0.00 | 0.00 | 0.00 | 1014.0 | |
| 20260503193850 | 77 | 87 | 1.0 | 6.0 | 0.00 | 0.00 | 0.00 | 1014.0 | |
| 20260503193539 | 77 | 87 | 1.0 | 6.0 | 0.00 | 0.00 | 0.00 | 1014.0 | |
| 20260503192839 | 76 | 294 | 0.0 | 3.0 | 0.00 | 0.00 | 0.00 | 1014.0 | |
| 20260503192139 | 75 | 0 | 0.0 | 0.0 | 0.00 | 0.00 | 0.00 | 1014.1 | |
| 20260503191853 | 75 | 309 | 0.0 | 2.0 | 0.00 | 0.00 | 0.00 | 1013.9 | |
| 20260503191440 | 75 | 309 | 0.0 | 2.0 | 0.00 | 0.00 | 0.00 | 1013.9 | |
| 20260503190850 | 74 | 195 | 0.0 | 3.0 | 0.00 | 0.00 | 0.00 | 1014.1 | |
| 20260503190739 | 74 | 195 | 0.0 | 3.0 | 0.00 | 0.00 | 0.00 | 1014.1 | |
| 20260503190042 | 73 | 191 | 0.0 | 2.0 | 0.00 | 0.00 | 0.00 | 1014.0 | |
| 20260503185849 | 73 | 262 | 0.0 | 4.0 | 0.00 | 0.00 | 0.00 | 1014.0 | |
| 20260503185340 | 73 | 165 | 0.0 | 2.0 | 0.00 | 0.00 | 0.00 | 1014.1 | |
| 20260503184851 | 73 | 179 | 0.0 | 3.0 | 0.00 | 0.00 | 0.00 | 1013.9 | |
| 20260503184639 | 73 | 179 | 0.0 | 3.0 | 0.00 | 0.00 | 0.00 | 1013.9 | |
| 20260503183939 | 73 | 277 | 1.0 | 5.0 | 0.00 | 0.00 | 0.00 | 1014.1 | |
| 20260503183849 | 73 | 246 | 1.0 | 3.0 | 0.00 | 0.00 | 0.00 | 1014.0 | |
| 20260503183239 | 73 | 98 | 1.0 | 3.0 | 0.00 | 0.00 | 0.00 | 1014.1 | |
| 20260503182851 | 73 | 256 | 0.0 | 2.0 | 0.00 | 0.00 | 0.00 | 1013.9 | |
| 20260503182540 | 73 | 256 | 0.0 | 2.0 | 0.00 | 0.00 | 0.00 | 1013.9 | |
| 20260503181839 | 71 | 48 | 0.0 | 1.0 | 0.00 | 0.00 | 0.00 | 1014.0 | |
| 20260503181139 | 71 | 69 | 0.0 | 4.0 | 0.00 | 0.00 | 0.00 | 1014.1 | |
| 20260503180849 | 70 | 263 | 0.0 | 3.0 | 0.00 | 0.00 | 0.00 | 1014.2 | |
| 20260503180439 | 70 | 263 | 0.0 | 3.0 | 0.00 | 0.00 | 0.00 | 1014.2 | |
| 20260503175849 | 70 | 332 | 0.0 | 1.0 | 0.00 | 0.00 | 0.00 | 1014.1 | |
| 20260503175739 | 70 | 332 | 0.0 | 1.0 | 0.00 | 0.00 | 0.00 | 1014.1 | |
| 20260503175039 | 69 | 270 | 0.0 | 1.0 | 0.00 | 0.00 | 0.00 | 1014.1 | |
| 20260503174850 | 68 | 136 | 0.0 | 2.0 | 0.00 | 0.00 | 0.00 | 1014.2 | |
| 20260503174339 | 68 | 105 | 0.0 | 3.0 | 0.00 | 0.00 | 0.00 | 1014.1 | |
| 20260503173849 | 67 | 0 | 0.0 | 0.0 | 0.00 | 0.00 | 0.00 | 1014.3 | |
| 20260503173639 | 67 | 0 | 0.0 | 0.0 | 0.00 | 0.00 | 0.00 | 1014.3 | |
| 20260503172939 | 66 | 250 | 0.0 | 2.0 | 0.00 | 0.00 | 0.00 | 1014.2 | |
| 20260503172849 | 66 | 156 | 0.0 | 2.0 | 0.00 | 0.00 | 0.00 | 1014.2 | |
| 20260503172239 | 66 | 87 | 0.0 | 4.0 | 0.00 | 0.00 | 0.00 | 1014.2 | |
| 20260503171850 | 65 | 108 | 1.0 | 5.0 | 0.00 | 0.00 | 0.00 | 1014.3 | |
| 20260503171539 | 65 | 108 | 1.0 | 5.0 | 0.00 | 0.00 | 0.00 | 1014.3 | |
| 20260503171034 | 64 | 87 | 0.0 | 4.0 | 0.00 | 0.00 | 0.00 | 1014.2 | |
| 20260503170839 | 64 | 87 | 0.0 | 4.0 | 0.00 | 0.00 | 0.00 | 1014.2 | |
| 20260503170139 | 63 | 214 | 0.0 | 2.0 | 0.00 | 0.00 | 0.00 | 1014.3 | |
| 20260503150939 | 56 | 0 | 0.0 | 0.0 | 0.00 | 0.00 | 0.00 | 1014.0 | |
| 20260503150849 | 55 | 0 | 0.0 | 0.0 | 0.00 | 0.00 | 0.00 | 1013.6 | |
| 20260503150238 | 55 | 0 | 0.0 | 0.0 | 0.00 | 0.00 | 0.00 | 1013.7 | |
| 20260503131039 | 53 | 0 | 0.0 | 0.0 | 0.00 | 0.00 | 0.00 | 1013.2 | |
| 20260503130848 | 53 | 0 | 0.0 | 0.0 | 0.00 | 0.00 | 0.00 | 1013.1 | |
| 20260503130338 | 53 | 0 | 0.0 | 0.0 | 0.00 | 0.00 | 0.00 | 1013.1 | |
| 20260503110439 | 56 | 0 | 0.0 | 0.0 | 0.00 | 0.00 | 0.00 | 1013.9 | |
| 20260503100139 | 57 | 0 | 0.0 | 0.0 | 0.00 | 0.00 | 0.00 | 1014.2 | |
| 20260503080938 | 59 | 0 | 0.0 | 0.0 | 0.00 | 0.00 | 0.00 | 1014.6 | |
| 20260503080848 | 59 | 0 | 0.0 | 0.0 | 0.00 | 0.00 | 0.00 | 1014.6 | |
| 20260503080238 | 60 | 0 | 0.0 | 0.0 | 0.00 | 0.00 | 0.00 | 1014.6 | |
| 20260503072848 | 61 | 0 | 0.0 | 0.0 | 0.00 | 0.00 | 0.00 | 1014.7 | |
| 20260503072738 | 61 | 0 | 0.0 | 0.0 | 0.00 | 0.00 | 0.00 | 1014.7 | |
| 20260503072038 | 61 | 0 | 0.0 | 0.0 | 0.00 | 0.00 | 0.00 | 1014.5 | |
| 20260503071848 | 60 | 0 | 0.0 | 0.0 | 0.00 | 0.00 | 0.00 | 1014.6 | |
| 20260503071340 | 60 | 0 | 0.0 | 0.0 | 0.00 | 0.00 | 0.00 | 1014.7 | |
| 20260503070848 | 60 | 0 | 0.0 | 0.0 | 0.00 | 0.00 | 0.00 | 1014.7 | |
| 20260503070640 | 60 | 0 | 0.0 | 0.0 | 0.00 | 0.00 | 0.00 | 1014.7 | |
| 20260503060338 | 62 | 0 | 0.0 | 0.0 | 0.00 | 0.00 | 0.00 | 1014.6 | |
| 20260503054937 | 63 | 0 | 0.0 | 0.0 | 0.00 | 0.00 | 0.00 | 1014.7 | |
| 20260503054847 | 63 | 0 | 0.0 | 0.0 | 0.00 | 0.00 | 0.00 | 1014.7 | |
| 20260503054237 | 63 | 0 | 0.0 | 0.0 | 0.00 | 0.00 | 0.00 | 1014.4 | |
| 20260503053847 | 63 | 0 | 0.0 | 0.0 | 0.00 | 0.00 | 0.00 | 1014.5 | |
| 20260503053633 | 63 | 0 | 0.0 | 0.0 | 0.00 | 0.00 | 0.00 | 1014.5 | |
| 20260503053537 | 63 | 0 | 0.0 | 0.0 | 0.00 | 0.00 | 0.00 | 1014.5 | |
| 20260503052837 | 63 | 0 | 0.0 | 0.0 | 0.00 | 0.00 | 0.00 | 1014.6 | |
| 20260503052137 | 63 | 0 | 0.0 | 0.0 | 0.00 | 0.00 | 0.00 | 1014.7 | |
| 20260503051848 | 63 | 0 | 0.0 | 0.0 | 0.00 | 0.00 | 0.00 | 1014.6 | |
| 20260503051437 | 63 | 0 | 0.0 | 0.0 | 0.00 | 0.00 | 0.00 | 1014.6 | |
| 20260503050847 | 63 | 0 | 0.0 | 0.0 | 0.00 | 0.00 | 0.00 | 1014.6 | |
| 20260503050737 | 63 | 0 | 0.0 | 0.0 | 0.00 | 0.00 | 0.00 | 1014.6 | |
| 20260503050037 | 63 | 0 | 0.0 | 0.0 | 0.00 | 0.00 | 0.00 | 1014.6 | |
| 20260503045848 | 63 | 0 | 0.0 | 0.0 | 0.00 | 0.00 | 0.00 | 1014.6 | |
| 20260503045337 | 63 | 0 | 0.0 | 0.0 | 0.00 | 0.00 | 0.00 | 1014.7 | |
| 20260503044848 | 64 | 0 | 0.0 | 0.0 | 0.00 | 0.00 | 0.00 | 1014.5 | |
| 20260503044637 | 64 | 0 | 0.0 | 0.0 | 0.00 | 0.00 | 0.00 | 1014.5 | |
| 20260503043937 | 64 | 0 | 0.0 | 0.0 | 0.00 | 0.00 | 0.00 | 1014.5 | |
| 20260503043847 | 64 | 0 | 0.0 | 0.0 | 0.00 | 0.00 | 0.00 | 1014.5 | |
| 20260503043239 | 65 | 0 | 0.0 | 0.0 | 0.00 | 0.00 | 0.00 | 1014.5 | |
| 20260503042847 | 65 | 0 | 0.0 | 0.0 | 0.00 | 0.00 | 0.00 | 1014.4 | |
| 20260503042537 | 65 | 0 | 0.0 | 0.0 | 0.00 | 0.00 | 0.00 | 1014.4 | |
| 20260503041837 | 65 | 0 | 0.0 | 0.0 | 0.00 | 0.00 | 0.00 | 1014.1 | |
| 20260503041137 | 65 | 0 | 0.0 | 0.0 | 0.00 | 0.00 | 0.00 | 1014.2 | |
| 20260503040847 | 65 | 0 | 0.0 | 0.0 | 0.00 | 0.00 | 0.00 | 1014.2 | |
| 20260503040552 | 65 | 0 | 0.0 | 0.0 | 0.00 | 0.00 | 0.00 | 1014.2 | |
| 20260503040437 | 65 | 0 | 0.0 | 0.0 | 0.00 | 0.00 | 0.00 | 1014.2 | |
| 20260503035847 | 65 | 0 | 0.0 | 0.0 | 0.00 | 0.00 | 0.00 | 1014.1 | |
| 20260503035737 | 65 | 0 | 0.0 | 0.0 | 0.00 | 0.00 | 0.00 | 1014.1 | |
| 20260503035038 | 65 | 42 | 0.0 | 2.0 | 0.00 | 0.00 | 0.00 | 1014.1 | |
| 20260503034847 | 65 | 48 | 0.0 | 2.0 | 0.00 | 0.00 | 0.00 | 1013.9 | |
| 20260503034337 | 65 | 0 | 0.0 | 0.0 | 0.00 | 0.00 | 0.00 | 1013.9 | |
| 20260503033847 | 65 | 0 | 0.0 | 0.0 | 0.00 | 0.00 | 0.00 | 1014.1 | |
| 20260503033638 | 65 | 0 | 0.0 | 0.0 | 0.00 | 0.00 | 0.00 | 1014.1 | |
| 20260503032939 | 66 | 0 | 0.0 | 0.0 | 0.00 | 0.00 | 0.00 | 1013.8 | |
| 20260503032847 | 66 | 0 | 0.0 | 0.0 | 0.00 | 0.00 | 0.00 | 1013.9 | |
| 20260503032237 | 66 | 0 | 0.0 | 0.0 | 0.00 | 0.00 | 0.00 | 1014.0 | |
| 20260503031847 | 66 | 0 | 0.0 | 0.0 | 0.00 | 0.00 | 0.00 | 1013.9 | |
| 20260503031537 | 66 | 0 | 0.0 | 0.0 | 0.00 | 0.00 | 0.00 | 1013.9 | |
| 20260503030839 | 66 | 0 | 0.0 | 0.0 | 0.00 | 0.00 | 0.00 | 1013.8 | |
| 20260503030137 | 66 | 0 | 0.0 | 0.0 | 0.00 | 0.00 | 0.00 | 1013.6 | |
| 20260503025849 | 66 | 0 | 0.0 | 0.0 | 0.00 | 0.00 | 0.00 | 1013.7 | |
| 20260503025439 | 66 | 0 | 0.0 | 0.0 | 0.00 | 0.00 | 0.00 | 1013.7 | |
| 20260503024847 | 67 | 0 | 0.0 | 0.0 | 0.00 | 0.00 | 0.00 | 1013.8 | |
| 20260503024737 | 67 | 0 | 0.0 | 0.0 | 0.00 | 0.00 | 0.00 | 1013.8 | |
| 20260503024037 | 67 | 0 | 0.0 | 0.0 | 0.00 | 0.00 | 0.00 | 1013.7 | |
| 20260503023847 | 68 | 0 | 0.0 | 0.0 | 0.00 | 0.00 | 0.00 | 1013.6 | |
| 20260503023337 | 68 | 0 | 0.0 | 0.0 | 0.00 | 0.00 | 0.00 | 1013.8 | |
| 20260503022847 | 69 | 55 | 0.0 | 2.0 | 0.00 | 0.00 | 0.00 | 1013.8 | |
| 20260503022637 | 69 | 55 | 0.0 | 2.0 | 0.00 | 0.00 | 0.00 | 1013.8 | |
| 20260503021937 | 70 | 59 | 0.0 | 2.0 | 0.00 | 0.00 | 0.00 | 1013.6 | |
| 20260503021847 | 71 | 291 | 0.0 | 1.0 | 0.00 | 0.00 | 0.00 | 1013.8 | |
| 20260503021237 | 71 | 0 | 0.0 | 0.0 | 0.00 | 0.00 | 0.00 | 1013.6 | |
| 20260503020847 | 71 | 0 | 0.0 | 0.0 | 0.00 | 0.00 | 0.00 | 1013.8 | |
| 20260503020537 | 71 | 0 | 0.0 | 0.0 | 0.00 | 0.00 | 0.00 | 1013.8 | |
| 20260503015837 | 72 | 70 | 0.0 | 4.0 | 0.00 | 0.00 | 0.00 | 1013.8 | |
| 20260503015137 | 72 | 304 | 0.0 | 1.0 | 0.00 | 0.00 | 0.00 | 1013.9 | |
| 20260503014847 | 72 | 0 | 0.0 | 0.0 | 0.00 | 0.00 | 0.00 | 1013.8 | |
| 20260503014437 | 72 | 0 | 0.0 | 0.0 | 0.00 | 0.00 | 0.00 | 1013.8 | |
| 20260503013847 | 72 | 150 | 0.0 | 2.0 | 0.00 | 0.00 | 0.00 | 1014.0 | |
| 20260503013737 | 72 | 150 | 0.0 | 2.0 | 0.00 | 0.00 | 0.00 | 1014.0 | |
| 20260503013037 | 73 | 60 | 0.0 | 3.0 | 0.00 | 0.00 | 0.00 | 1013.8 | |
| 20260503012849 | 73 | 84 | 1.0 | 6.0 | 0.00 | 0.00 | 0.00 | 1014.0 | |
| 20260503012344 | 73 | 96 | 0.0 | 4.0 | 0.00 | 0.00 | 0.00 | 1014.0 | |
| 20260503011847 | 72 | 70 | 1.0 | 5.0 | 0.00 | 0.00 | 0.00 | 1013.9 | |
| 20260503011637 | 72 | 70 | 1.0 | 5.0 | 0.00 | 0.00 | 0.00 | 1013.9 |